Tracking 22873 objects as of 23-Apr-2021
HD Live streaming from Space Station
objects crossing your sky now

OPS 3151

Track OPS 3151 now!
OPS 3151 is classified as:


NORAD ID: 9803
Int'l Code: 1977-007A
Perigee: 36,228.9 km
Apogee: 36,932.6 km
Inclination: 9.4 °
Period: 1,476.5 minutes
Semi major axis: 42951 km
RCS: Unknown
Launch date: February 6, 1977
Source: United States (US)
Launch site: AIR FORCE EASTERN TEST RANGE (AFETR)
aabbcc
Your satellite tracking list
Your tracking list is empty




NASA's NSSDC Master Catalog

Two Line Element Set (TLE):
1 09803U 77007A   21112.53729795 -.00000063  00000-0  00000-0 0  9995
2 09803   9.4311 303.5227 0081919 353.6322  14.7188  0.97528545  6307
Source of the keplerian elements: McCants